This demonstration page uses our WeatherBlox Daily Observations layout. Learn more.

38.80484, -77.04692

Hourly Observations for September 30, 2016

Temp ( °F °C ) Dew Point ( °F °C ) Humidity (%) Winds ( mph kmh ) Pressure ( in mb ) Visibility ( mi km ) Precip ( " mm )
12:52 am 00:52 Cloudy with Light Rain 64 18 64 18 100 100 NE 17 28 30.15 1021 10 16.0934 0 0
1:52 am 01:52 Cloudy with Rain 64 17.8 63 17.2 96 96 NE 13 20 30.14 1021 7 11.26538 0.01 0.254
2:05 am 02:05 Cloudy with Heavy Rain 64 17.8 63 17.2 96 96 NE 13 20 30.15 1021 2.5 4.02335 0.05 1.27
2:15 am 02:15 Cloudy with Light Rain 64 17.8 63 17.2 96 96 NE 14 22 30.15 1021 9 14.48406 0.08 2.032
2:52 am 02:52 Cloudy 64 17.8 63 17.2 96 96 NE 16 26 30.12 1020 10 16.0934 0.08 2.032
3:52 am 03:52 Cloudy 64 17.8 63 17.2 96 96 NE 17 28 30.12 1020 10 16.0934 0 0.0254
4:17 am 04:17 Cloudy 64 17.8 63 17.2 96 96 NE 21 33 30.12 1020 10 16.0934 0 0
4:52 am 04:52 Cloudy 64 17.8 62 16.7 93 93 NE 16 26 30.12 1020 10 16.0934 0 0
5:10 am 05:10 Cloudy 63 17 63 17 100 100 NE 20 31 30.12 1020 10 16.0934 0 0
5:52 am 05:52 Cloudy 62 16.7 61 16.1 96 96 NE 15 24 30.14 1021 10 16.0934 0 0
6:07 am 06:07 Cloudy 62 16.7 61 16.1 96 96 NE 16 26 30.15 1021 10 16.0934 0 0
6:52 am 06:52 Cloudy with Light Drizzle 62 16.7 61 16.1 96 96 NNE 17 28 30.14 1021 10 16.0934 0 0.0254
7:52 am 07:52 Cloudy with Light Drizzle 62 16.7 61 16.1 96 96 NE 15 24 30.16 1021 10 16.0934 0 0.0254
8:52 am 08:52 Cloudy with Mist and Fog 62 16.7 61 16.1 96 96 NNE 16 26 30.16 1021 5 8.0467 0 0.0254
9:01 am 09:01 Cloudy with Mist and Fog 62 16.7 61 16.1 96 96 NE 15 24 30.15 1021 6 9.65604 0 0
9:38 am 09:38 Cloudy 63 17 61 16 94 94 NE 15 24 30.18 1022 8 12.87472 0 0
9:52 am 09:52 Cloudy 63 17.2 61 16.1 93 93 NE 14 22 30.17 1022 8 12.87472 0 0
10:52 am 10:52 Cloudy 64 17.8 62 16.7 93 93 NE 16 26 30.16 1022 10 16.0934 0 0
11:52 am 11:52 Cloudy with Light Drizzle 64 17.8 63 17.2 96 96 NE 14 22 30.16 1021 7 11.26538 0 0.0254
12:52 pm 12:52 Cloudy 65 18.3 63 17.2 93 93 NE 16 26 30.15 1021 10 16.0934 0 0.0254
1:22 pm 13:22 Cloudy 64 18 63 17 94 94 NE 16 26 30.15 1021 10 16.0934 0 0
1:52 pm 13:52 Cloudy 65 18.3 63 17.2 93 93 NE 17 28 30.15 1021 10 16.0934 0 0
2:30 pm 14:30 Cloudy 64 18 63 17 94 94 NNE 12 19 30.15 1021 9 14.48406 0 0
2:52 pm 14:52 Cloudy 65 18.3 63 17.2 93 93 NE 16 26 30.13 1020 9 14.48406 0 0
3:05 pm 15:05 Cloudy with Light Drizzle 65 18.3 63 17.2 93 93 NE 15 24 30.12 1020 6 9.65604 0 0.0254
3:34 pm 15:34 Cloudy with Mist and Fog 64 18 64 18 100 100 NE 15 24 30.12 1020 4 6.43736 0 0
3:52 pm 15:52 Cloudy with Light Drizzle 65 18.3 64 17.8 97 97 NE 16 26 30.11 1020 3 4.82802 0 0.0254
4:01 pm 16:01 Cloudy with Light Drizzle 65 18.3 64 17.8 97 97 NE 14 22 30.12 1020 3 4.82802 0 0.0254
4:52 pm 16:52 Cloudy with Light Drizzle 65 18.3 64 17.8 97 97 NNE 12 19 30.12 1020 3 4.82802 0 0.0254
5:24 pm 17:24 Cloudy with Light Drizzle 64 18 64 18 100 100 NE 12 19 30.12 1020 2.5 4.02335 0 0
5:52 pm 17:52 Cloudy with Light Drizzle 65 18.3 65 18.3 100 100 NE 12 19 30.11 1020 4 6.43736 0 0.0254
6:10 pm 18:10 Cloudy with Nearby Thunderstorms 64 18 64 18 100 100 NE 10 17 30.12 1020 4 6.43736 0 0
6:21 pm 18:21 Cloudy with Light Drizzle 65 18.3 65 18.3 100 100 NE 10 17 30.12 1020 4 6.43736 0 0.0254
6:47 pm 18:47 Cloudy with Light Drizzle 66 19 64 18 94 94 ENE 14 22 30.12 1020 6 9.65604 0 0.0254
6:52 pm 18:52 Cloudy with Light Drizzle 66 18.9 65 18.3 96 96 NE 12 19 30.13 1020 6 9.65604 0.01 0.254
7:46 pm 19:46 Cloudy with Light Drizzle 64 18 64 18 100 100 NE 14 22 30.12 1020 6 9.65604 0 0
7:52 pm 19:52 Cloudy with Light Drizzle 66 18.9 65 18.3 96 96 NE 14 22 30.12 1020 5 8.0467 0.02 0.508
8:52 pm 20:52 Cloudy with Light Drizzle 65 18.3 65 18.3 100 100 ENE 16 26 30.11 1020 5 8.0467 0 0.0254
9:19 pm 21:19 Cloudy with Light Drizzle 65 18.3 65 18.3 100 100 NE 13 20 30.12 1020 6 9.65604 0 0.0254
9:31 pm 21:31 Cloudy with Light Drizzle 65 18.3 64 17.8 97 97 ENE 16 26 30.12 1020 6 9.65604 0 0.0254
9:52 pm 21:52 Cloudy with Mist and Fog 65 18.3 64 17.8 97 97 NE 14 22 30.13 1020 6 9.65604 0 0.0254
10:01 pm 22:01 Cloudy with Mist and Fog 65 18.3 64 17.8 97 97 NE 14 22 30.12 1020 6 9.65604 0 0
10:52 pm 22:52 Cloudy with Light Drizzle 65 18.3 64 17.8 97 97 NE 15 24 30.12 1020 7 11.26538 0 0.0254
11:52 pm 23:52 Cloudy 65 18.3 64 17.8 97 97 NE 14 22 30.12 1020 10 16.0934 0 0.0254

Powered by AerisWeather